SCP
0 0 0 0 0 0 0 0 0 0 0 0 0 0 0 0 0 0 0 0 0 0 0 0 0 0 0 0 0 0 0 0 0 0 0 0 0 0 0 0 0 0 0
0 0 0 0 0 0 0 0 0 0 0 0 0 0 0 0 0 0 0 0 0 0 0 0 0 0 0 0 0 0 0 0 0 0 0 0 0 0 0 0 0 0 0
0 0 0 0 0 0 0 0 0 0 0 0 0 0 0 0 0 0 0 0 0 0 0 0 0 0 0 0 0 0 0 0 0 0 0 0 0 0 0 1 1 0 0
0 0 0 0 0 0 0 0 0 0 0 0 0 0 0 0 0 0 0 0 0 0 0 0 0 0 0 0 0 0 0 0 0 0 0 0 0 0 0 1 1 1 1
0 0 0 0 0 0 0 0 0 0 0 0 0 0 0 0 0 0 0 0 0 0 0 0 0 0 0 0 0 0 0 0 0 0 0 0 0 0 0 1 1 1 1
0 0 0 0 0 0 0 0 0 0 0 0 0 0 0 0 0 0 0 0 0 0 0 0 0 0 0 0 0 0 0 0 0 0 0 0 0 0 0 0 1 1 1
0 0 0 0 0 0 0 0 0 0 0 0 0 0 0 0 0 0 0 0 0 0 0 0 0 0 0 0 0 0 0 0 0 0 0 0 0 0 0 0 0 1 1
0 0 0 0 0 0 0 0 0 0 0 0 0 0 0 0 0 0 0 0 0 0 0 0 0 0 0 0 0 0 0 0 0 0 0 0 0 0 0 0 0 0 1
0 0 0 0 0 0 0 0 0 0 0 0 0 0 0 0 0 0 0 0 0 0 0 0 0 0 0 0 0 0 0 0 0 0 0 0 0 0 0 0 0 0 0
0 0 0 0 0 0 0 0 0 0 0 0 0 0 0 0 0 0 0 0 0 0 0 0 0 0 0 0 0 0 0 0 0 0 0 0 0 0 0 0 0 0 0
0 0 0 0 0 0 0 0 0 0 0 0 0 0 0 0 0 0 0 0 0 0 0 0 0 0 0 0 0 0 0 0 0 0 0 0 0 0 0 0 0 0 0
0 0 0 0 0 0 0 0 0 0 0 0 0 0 0 0 0 0 0 0 0 0 0 0 0 0 0 0 0 0 0 0 0 0 0 0 0 0 0 0 0 0 0
0 0 0 0 0 0 0 0 0 0 0 0 0 0 0 0 0 0 0 0 0 0 0 0 0 0 0 0 0 0 0 0 0 0 0 0 0 0 0 0 0 0 0
0 0 0 0 0 0 0 0 0 0 0 0 0 0 0 0 0 0 0 0 0 0 0 0 0 0 0 0 0 0 0 0 0 0 0 0 0 0 0 0 0 0 0
0 0 0 0 0 0 0 0 0 0 0 0 0 0 0 0 0 0 0 0 0 0 0 0 0 0 0 0 0 0 0 0 0 0 0 0 0 0 0 0 0 0 0
0 0 0 0 0 0 0 0 0 0 0 0 0 0 0 0 0 0 0 0 0 0 0 0 0 0 0 0 0 0 0 0 0 0 0 0 0 0 0 0 0 0 0
0 0 0 0 0 0 0 0 0 0 0 0 0 0 0 0 0 0 0 0 0 0 0 0 0 0 0 0 0 0 0 0 0 0 0 0 0 0 0 0 0 0 0
0 0 0 0 0 0 0 0 0 0 0 0 0 0 0 0 0 0 0 0 0 0 0 0 0 0 0 0 0 0 0 0 0 0 0 0 0 0 0 0 0 0 0
0 0 0 0 0 0 0 0 0 0 0 0 0 0 0 0 0 0 0 0 0 0 0 0 0 0 0 0 0 0 -0 -0 0 0 0 0 0 0 0 0 0 0 0
0 0 0 0 0 0 0 0 0 0 0 0 0 0 0 0 0 0 0 0 0 0 0 0 0 0 0 0 0 0 0 0 0 0 0 0 0 0 0 0 0 0 0
0 0 0 0 0 0 0 0 0 0 0 0 0 0 0 0 0 0 0 0 0 0 0 0 0 0 0 0 0 0 0 0 0 0 0 0 0 0 0 0 0 0 0
0 0 0 0 0 0 0 0 0 0 0 0 0 0 0 0 0 0 0 0 0 0 0 0 0 0 0 0 0 -0 -0 0 0 0 0 0 0 0 0 0 0 0 0
0 0 0 0 0 0 0 0 0 0 0 0 0 0 0 0 0 0 0 0 0 0 0 0 0 0 0 0 0 0 0 0 0 0 0 0 0 0 0 0 0 0 0
0 0 0 0 0 0 0 0 0 0 0 0 0 0 0 0 0 0 0 0 0 0 0 0 0 0 0 0 0 0 0 0 0 0 0 0 0 0 0 0 0 0 0
0 0 0 0 0 0 0 0 0 0 0 0 0 0 0 0 0 0 0 0 0 0 0 0 0 0 0 0 0 0 0 0 0 0 0 0 0 0 0 0 0 0 0
0 0 0 0 0 0 0 0 0 0 0 0 0 0 0 0 0 0 0 0 0 0 0 0 0 0 0 0 0 0 0 0 0 0 0 0 0 0 0 0 0 0 0
Wind_Speed
11 14 20 21 21 22 22 22 23 23 23 23 24 24 25 25 25 25 25 25 25 26 26 26 26 25 25 24 24 24 24 23 23 23 23 20 15 13 13 12 10 9 7
11 13 17 20 20 21 21 22 22 22 23 23 24 25 25 25 25 25 25 25 25 25 25 25 26 25 25 25 24 24 24 24 24 24 23 19 13 11 13 13 12 10 9
11 12 15 19 19 19 21 21 22 22 23 23 24 25 25 26 25 25 25 25 25 24 25 25 25 25 25 25 24 24 24 24 24 24 22 14 12 12 13 14 14 14 14
11 11 14 19 19 19 20 21 21 22 22 23 23 24 25 25 25 25 25 25 25 25 24 24 25 25 25 25 25 24 24 24 24 23 14 13 14 14 16 16 16 16 15
10 11 14 19 19 19 19 20 20 21 21 22 22 23 23 24 24 24 24 24 24 24 24 25 25 25 25 25 25 25 25 24 24 18 13 13 13 16 19 19 18 17 16
10 12 14 19 19 19 19 20 20 20 21 22 22 23 23 24 24 24 24 24 24 24 24 24 24 25 25 25 25 25 25 25 23 14 13 13 12 16 22 21 19 18 17
10 11 13 18 18 18 19 20 20 20 21 21 22 23 24 24 25 24 24 25 24 25 24 24 24 24 24 24 24 24 24 25 19 14 13 12 13 19 22 23 22 20 18
10 11 11 15 17 17 18 19 19 20 20 21 22 23 24 24 24 24 24 25 25 25 25 25 25 25 24 24 24 24 24 23 18 15 13 12 14 19 22 23 23 22 20
8 10 10 12 12 13 14 18 18 18 19 20 20 22 23 22 22 23 23 24 25 25 25 25 25 25 25 24 23 23 23 23 17 11 14 11 15 20 22 23 23 23 22
7 9 11 11 11 11 10 14 15 16 17 18 18 21 21 20 20 21 21 24 25 25 25 25 25 25 25 23 22 22 23 19 12 14 10 11 18 22 23 23 23 24 23
7 8 9 10 10 10 10 10 11 12 15 16 15 20 18 14 15 15 20 23 23 24 24 23 24 24 23 19 20 21 19 9 14 11 10 15 21 23 23 23 24 24 24
8 8 8 9 10 10 8 7 7 8 10 11 11 14 12 12 11 14 18 20 21 22 21 21 23 20 16 12 14 17 9 13 12 10 10 19 22 23 23 24 24 24 24
6 7 7 8 9 9 7 7 5 5 6 8 11 12 11 10 9 10 9 11 13 16 13 15 15 12 13 12 12 12 13 12 9 9 12 20 23 23 24 24 24 24 24
5 7 7 7 8 9 8 6 6 6 6 7 9 11 10 8 9 10 8 10 10 8 12 12 10 14 15 15 15 15 15 11 10 10 12 21 23 24 24 24 24 24 23
5 7 7 7 8 8 7 6 6 7 7 8 7 9 11 9 10 11 10 10 11 10 11 12 13 15 15 15 14 15 16 16 15 14 11 20 23 24 24 23 23 23 23
4 5 6 6 8 8 7 7 7 7 7 7 7 10 11 10 10 11 11 11 11 11 11 12 15 14 13 13 15 16 17 16 15 15 14 15 21 22 21 21 21 21 21
3 4 6 7 8 9 9 9 7 7 8 7 7 9 11 11 12 12 11 11 11 12 14 13 15 13 13 14 16 16 15 16 16 16 16 13 13 17 19 18 18 18 20
1 3 5 5 8 9 9 9 7 7 8 7 7 8 11 12 13 12 11 11 12 12 12 12 12 13 13 14 14 14 14 14 17 17 15 14 12 11 12 14 15 17 18
1 2 4 6 8 9 9 8 7 7 7 7 7 8 11 13 13 13 11 11 13 12 12 12 12 13 14 15 14 14 14 14 15 16 16 14 12 11 10 10 14 16 17
3 1 4 6 7 9 7 7 6 7 7 7 7 9 12 11 14 13 11 13 13 12 12 12 15 15 14 14 15 15 15 16 15 14 14 11 10 10 10 9 10 11 15
4 1 4 6 7 7 6 7 7 8 7 7 7 11 12 12 13 13 11 12 12 12 14 16 15 16 14 13 14 15 15 16 14 11 8 8 10 9 9 10 10 9 9
4 1 4 6 7 7 6 6 6 8 7 7 7 9 11 12 13 11 13 12 13 13 15 15 15 13 13 12 13 15 13 13 7 8 9 10 10 7 9 11 11 12 11
4 0 2 5 6 7 8 6 6 6 7 6 9 8 11 13 13 13 14 14 14 14 13 16 16 17 14 14 12 10 10 10 13 10 12 9 8 9 10 10 12 12 12
4 2 1 4 6 6 7 7 10 8 9 10 9 9 12 12 13 13 14 15 15 13 15 16 15 15 16 13 12 11 11 12 11 10 9 10 13 12 12 10 11 12 12
5 2 1 4 5 6 7 8 9 9 8 8 10 12 12 11 12 13 14 14 14 13 15 16 16 15 13 13 12 11 12 12 13 12 14 12 11 10 11 11 10 10 11
5 3 1 4 4 6 7 8 9 10 11 12 12 12 11 10 10 13 15 14 14 13 15 15 15 16 13 14 12 11 11 11 11 11 12 13 13 11 12 11 10 9 9
Wind_Direction
349 347 346 351 3 9 12 13 14 14 14 14 14 14 14 13 11 10 8 6 5 3 2 1 360 359 358 358 357 354 352 351 351 349 343 331 317 312 311 308 293 268 254
341 347 346 359 6 10 13 14 14 14 14 14 13 13 12 11 10 9 7 5 3 2 0 359 357 356 356 355 355 352 350 349 348 346 337 320 308 308 307 305 299 289 290
355 353 349 6 8 11 14 14 14 14 14 14 13 13 11 9 8 7 5 3 2 1 359 357 355 353 352 352 351 350 348 348 346 342 327 321 323 316 312 306 299 288 279
5 359 358 8 9 11 14 14 14 14 15 14 13 12 11 8 6 6 4 2 1 360 358 356 353 351 350 349 347 346 346 345 344 334 327 332 325 323 321 312 302 293 282
17 10 5 10 11 13 15 14 15 14 15 14 13 11 10 8 5 5 3 0 359 358 356 355 352 350 348 346 344 343 343 343 339 327 332 331 324 324 325 317 308 297 288
24 17 11 13 13 15 16 16 15 14 14 12 10 9 8 6 3 2 1 357 357 355 354 353 350 348 346 344 341 340 341 342 331 330 330 324 322 327 326 321 313 302 289
25 20 17 16 16 16 17 16 14 14 13 10 7 5 3 2 359 357 358 354 353 352 351 350 347 346 343 341 338 337 337 337 328 325 323 317 318 324 324 324 323 314 298
26 21 21 19 18 15 15 16 13 13 10 8 4 1 359 357 355 353 354 350 349 348 346 346 343 342 340 338 336 335 333 332 324 318 318 310 316 321 322 323 322 320 314
28 24 21 17 15 11 13 14 11 11 8 5 2 358 355 353 351 350 350 347 345 345 343 342 339 338 336 333 331 331 331 327 312 315 312 309 320 319 318 318 318 318 315
33 27 20 16 12 1 4 13 8 8 5 1 359 357 353 350 349 347 347 344 342 341 339 337 335 334 333 328 326 326 326 315 314 314 307 310 318 315 312 312 314 314 312
38 30 20 12 7 359 356 1 360 3 3 359 358 356 352 348 346 342 342 338 338 337 335 333 333 330 328 322 323 325 318 313 315 306 303 309 312 311 308 308 308 308 307
32 26 20 11 3 357 353 352 355 359 358 358 354 352 347 343 338 336 332 333 333 332 330 330 329 327 326 321 323 322 313 315 308 302 302 307 308 307 305 305 303 302 302
34 27 21 11 0 357 351 349 354 351 351 350 351 348 340 338 332 332 330 329 329 328 329 327 324 326 322 318 314 312 311 311 304 303 299 302 304 304 303 301 298 296 296
37 27 16 5 359 356 352 348 352 349 347 345 343 344 342 335 331 330 325 323 323 323 322 321 317 317 315 312 310 308 306 304 301 299 294 297 299 301 300 297 294 292 290
40 25 13 355 358 355 351 345 349 349 346 340 339 340 340 331 328 326 320 320 317 318 317 317 313 314 311 309 306 305 303 301 297 293 291 293 294 295 295 293 292 290 288
43 22 5 353 358 352 351 349 347 345 341 336 337 338 336 330 325 322 318 317 315 317 316 311 309 309 307 307 304 303 301 298 292 292 290 291 289 289 289 290 290 290 290
52 13 2 350 352 349 348 347 344 343 340 334 334 332 334 330 326 323 317 316 316 316 313 309 308 306 306 305 303 302 299 296 293 290 289 286 285 282 281 284 289 292 292
107 360 357 347 343 346 345 342 342 341 339 333 332 331 336 333 330 324 318 317 317 315 312 310 308 309 307 306 304 302 299 294 290 288 286 280 276 277 277 280 291 293 294
178 345 343 349 343 342 339 336 338 335 334 332 333 335 337 334 332 326 319 316 319 315 312 309 309 309 306 305 303 301 297 293 290 285 280 275 271 269 272 284 292 292 292
189 309 340 345 343 339 336 335 335 335 334 335 334 335 335 332 331 326 318 320 319 313 312 312 310 306 303 303 302 300 296 291 280 274 272 271 269 267 272 292 295 291 289
198 283 345 341 345 344 341 340 336 335 331 330 330 330 329 329 328 324 320 318 316 312 311 308 307 305 304 304 303 303 300 286 272 268 273 281 276 275 282 292 292 295 292
202 282 335 344 343 346 343 332 325 320 318 318 322 326 327 327 324 320 318 315 313 309 307 307 307 303 301 302 305 307 308 304 275 320 301 282 278 291 296 293 293 290 290
194 342 345 341 337 342 340 329 323 318 319 329 332 328 327 324 319 317 315 314 311 310 306 306 305 301 300 300 294 294 298 304 328 296 289 285 297 303 294 291 289 288 289
163 135 328 333 333 342 340 335 336 331 330 332 329 322 322 320 318 317 316 315 312 310 307 305 302 299 296 294 293 285 277 284 289 298 298 302 298 290 290 291 290 287 284
148 151 312 323 329 342 342 338 333 329 327 324 324 322 324 322 320 320 322 320 318 314 310 307 303 298 293 290 289 288 283 280 271 272 285 292 293 291 290 290 286 283 283
155 169 276 311 329 343 341 338 334 330 329 326 328 326 326 322 322 326 327 325 323 319 316 313 306 300 294 289 285 282 280 278 278 278 284 292 294 296 293 288 282 279 279